Location: Unspecified
(34.4950°S, 58.5160°W)
Time: 23:30:06
(UTC+00:00)

USA 281 - Pass Details

Date: 19 April 2026
Orbit: 1079 x 1080 km, 106.0° (Epoch: 5 January)

Event Time Altitude Azimuth Distance (km) Brightness Sun altitude
Rises 08:11:49 0° 167° (SSE) 3,907 6.4 -27.2°
Reaches altitude 10° 08:14:30 10° 174° (S) 2,946 5.6 -26.6°
Enters shadow 08:19:47 39° 223° (SW) 1,576 3.7 -25.5°
